BREEZE-KM R/B

Satellite information

Favourite Embed

Satellite Type and Status

ROCKET BODYIN ORBIT

Key statistics

Satellite BREEZE-KM R/B at a glance.

Uptime

2356

Days in orbit

Revolutions

≈ 12.8

Per day

Orbit

LEO

Low Earth Orbit

Inclination

82.5

Latest

Satellite identification and parameters

Extended collection of information and parameters for BREEZE-KM R/B.

Object identification

Identified? True

Debris? False

Object name: BREEZE-KM R/B

International designator: 2018-097D

Object number (NORAD): 43754

Object ID (CCSDS): 43754

Country: COMMONWEALTH OF INDEPENDENT STATES (CIS)

Current information (Y/N): Y

RCS size: LARGE

Orbital parameters

Period: 112.491 minutes

Inclination: 82.5168 deg

SMA: 7719.173 km

Apoapsis: 1512.767 km

Periapsis: 1169.308 km

RAAN: 5.5431 deg

Eccentricy: 0.0222471

Argument of periapsis: 162.3817 deg

Mean anomaly: 198.5162 deg

Mean motion: 12.80108091 rev/day

Mean motion (dot): 0.0000004 rev/day2

B* drag term: 0.00011028 1/REarth

Two-line elements (TLE)

Creation date: May 12, 2025, 7:41 p.m.

Reference frame: TEME

Reference center: EARTH

Epoch: May 12, 2025, 1:55 p.m. UTC

TLE line 0: 0 BREEZE-KM R/B

TLE line 1: 1 43754U 18097D 25132.58020635 .00000040 00000-0 11028-3 0 9999

TLE line 2: 2 43754 82.5168 5.5431 0222471 162.3817 198.5162 12.80108091301162

Live tracking on map

Real-time ground track for satellite BREEZE-KM R/B.

In-orbit conjunctions

A list of the most updated potential collisions computed for object BREEZE-KM R/B.

Target Orbit TCA Probability of collision Miss distance Type
DELTA 1 DEB SSO 2025-04-13 05:02:23 0.0001111384 596.0 (m) DEBRIS
DELTA 1 DEB SSO 2024-08-18 12:44:08 0.0001744301 570.0 (m) DEBRIS
OPS 4682 DEB SSO 2024-08-10 09:21:34 0.0004145367 219.0 (m) DEBRIS

Associated space launch

Rodnik is a series of military communications satellites.

BREEZE-KM R/B was lifted into orbit during the mission ‘Rokot / Briz-KM | 3 x Rodnik (Kosmos 2530, 2531, 2532)’, on board a Rokot/Briz-KM space rocket.

The launch took place on Nov. 30, 2018, 2:27 a.m. from 133/3 (133L).

For more information about the launch, click the button.

Launch to space Rokot / Briz-KM | 3 x Rodnik (Kosmos 2530, 2531, 2532)
Rokot / Briz-KM | 3 x Rodnik (Kosmos 2530, 2531, 2532)

Agency: N/A

Status: Launch Successful

Launch date: Nov. 30, 2018, 2:27 a.m. UTC

Rocket: Rokot/Briz-KM

Launch pad: 133/3 (133L)

Location: Plesetsk Cosmodrome, Russian Federation

...

Latest news about this satellite

There are no fresh news available about this satellite. Check back as we update our databases every day.


Newsletter sign-up

Weekly statistics, charts and insights to help you stay on top of the space industry.